Flag for Mauritania Weather past 2 weeks in Nouakchott, Mauritania

Now
86 °F

Clear.


Feels Like: 91 °F
Forecast: 77 / 85 °F
Wind: 14 mph from West

Location: Nouakchott Airport

Current Time: Jul 31, 2015 at 2:08:52 PM

Latest Report: Jul 31, 2015 at 1:30 PM


Visibility: 5 mi

Pressure: 29.89 "Hg

Humidity: 59%

Dew point: 70 °F

Location of NouakchottLocation

Historic Weather in Nouakchott — Graph

°F

Nouakchott temperature yesterday

Maximum temperature yesterday: 86 °F (at 12:30 PM)
Minimum temperature yesterday: 79 °F (at 12:00 AM)
Average temperature yesterday: 81 °F

Past Weeks' High & Low Weather Summary

 TemperatureHumidityPressure
High104 °F (Jul 19, 1:30 PM)89% (Jul 19, 12:30 AM)32.84 "Hg (Jul 19, 12:30 AM)
Low73 °F (Jul 21, 5:00 AM)12% (Jul 19, 1:30 PM)29.74 "Hg (Jul 16, 5:00 PM)
Average80 °F72%29.87 "Hg
* Reported Jul 16 1:00 PM — Jul 31 1:00 PM, Nouakchott, Weather by CustomWeather, © 2015

Note: Actual official high and low records may vary slightly from our data, if they occured in-between our weather recording intervals... More about our weather records

Advertising

Nouakchott weather history for previous 24 hours

 ConditionsComfort  
Time TempWeatherWind HumidityBarometerVisibility
1:00 PM
Fri, Jul 31
86 °FClear.14 mph59%29.89 "Hg5 mi
12:30 PM84 °FClear.14 mph62%29.89 "Hg5 mi
12:00 PM86 °FPassing clouds.10 mph55%29.89 "Hg5 mi
11:30 AM86 °FPassing clouds.12 mph59%29.92 "Hg5 mi
11:00 AM84 °FScattered clouds.9 mph62%29.92 "Hg5 mi
10:30 AM82 °FScattered clouds.10 mph66%29.92 "Hg5 mi
10:00 AM82 °FPartly sunny.8 mph66%29.92 "Hg5 mi
9:30 AM81 °FPartly sunny.8 mph70%29.92 "Hg5 mi
9:00 AM81 °FPartly sunny.9 mph70%29.89 "Hg5 mi
8:30 AM81 °FPartly sunny.12 mph70%29.89 "Hg5 mi
7:30 AM79 °FPartly sunny.12 mph74%29.89 "Hg5 mi
7:00 AM79 °FPartly sunny.10 mph74%29.86 "Hg5 mi
6:30 AM79 °FPassing clouds.12 mph74%29.86 "Hg5 mi
6:00 AM77 °FPassing clouds.12 mph79%29.86 "Hg5 mi
5:30 AM77 °FPassing clouds.9 mph79%29.86 "Hg5 mi
5:00 AM77 °FPassing clouds.8 mph79%29.86 "Hg5 mi
4:30 AM77 °FPassing clouds.8 mph79%29.86 "Hg5 mi
4:00 AM77 °FPassing clouds.9 mph79%29.86 "Hg5 mi
3:30 AM77 °FPassing clouds.9 mph79%29.86 "Hg5 mi
3:00 AM77 °FPassing clouds.9 mph79%29.86 "Hg5 mi
2:30 AM77 °FPassing clouds.9 mph79%29.86 "Hg5 mi
2:00 AM77 °FPassing clouds.8 mph79%29.86 "Hg5 mi
1:30 AM77 °FPassing clouds.9 mph79%29.89 "Hg5 mi
1:00 AM79 °FPassing clouds.8 mph74%29.89 "Hg5 mi
12:30 AM79 °FPassing clouds.8 mph74%29.89 "Hg5 mi
12:00 AM79 °FPassing clouds.8 mph74%29.89 "Hg5 mi
11:30 PM
Thu, Jul 30
79 °FPassing clouds.10 mph74%29.89 "Hg5 mi
11:00 PM79 °FPassing clouds.9 mph74%29.89 "Hg5 mi
10:30 PM79 °FPassing clouds.8 mph74%29.89 "Hg5 mi
10:00 PM79 °FPassing clouds.8 mph74%29.89 "Hg5 mi
9:30 PM79 °FPassing clouds.10 mph74%29.89 "Hg5 mi
9:00 PM79 °FPassing clouds.12 mph74%29.86 "Hg5 mi
8:30 PM79 °FPassing clouds.12 mph74%29.86 "Hg5 mi
8:00 PM79 °FPassing clouds.13 mph74%29.86 "Hg5 mi
7:30 PM81 °FScattered clouds.13 mph74%29.86 "Hg5 mi
7:00 PM81 °FScattered clouds.15 mph74%29.86 "Hg5 mi
6:30 PM82 °FScattered clouds.13 mph66%29.83 "Hg5 mi
6:00 PM82 °FScattered clouds.15 mph66%29.83 "Hg5 mi
5:30 PM84 °FScattered clouds.16 mph62%29.83 "Hg5 mi
5:00 PM84 °FScattered clouds.15 mph62%29.83 "Hg5 mi
4:30 PM84 °FScattered clouds.15 mph62%29.83 "Hg5 mi
4:00 PM84 °FScattered clouds.15 mph62%29.86 "Hg4 mi
3:30 PM84 °FScattered clouds.15 mph62%29.86 "Hg4 mi
3:00 PM86 °FPartly sunny.17 mph59%29.86 "Hg4 mi
2:30 PM86 °FPartly sunny.16 mph59%29.86 "Hg4 mi
2:00 PM84 °FPartly sunny.16 mph62%29.86 "Hg4 mi
Weather by CustomWeather, © 2015

See weather overviewHow to use our weather pages